When you browse on this site, cookies collect data to enhance your experience and personalize the content and advertising you see.
Visit our Privacy Policy to learn more. By continuing to use the site, you agree to this use of cookies and data.
  • In Germany
  • List of Countries
  • For 7 days
  • Water Temperature
  • Weather Map
  • Weather Widgets
  • user-avatar
    Login

    Hourly Weather Mingachevir

    Today, 25 August, Sunday

    Time Temperature Precipitation Wind Pressure Humidity
    00:00 +28°C° 0 mm 4 mps 751 mmHg 48%
    01:00 +27°C° 0 mm 3 mps 751 mmHg 50%
    02:00 +26°C° 0 mm 2 mps 751 mmHg 52%
    03:00 +26°C° 0 mm 1 mps 751 mmHg 53%
    04:00 +26°C° 0 mm 1 mps 751 mmHg 54%
    05:00 +26°C° 0 mm 1 mps 751 mmHg 54%
    06:00 +26°C° 0 mm 1 mps 751 mmHg 54%
    07:00 +28°C° 0 mm 1 mps 751 mmHg 47%
    08:00 +31°C° 0 mm 2 mps 751 mmHg 40%
    09:00 +34°C° 0 mm 2 mps 751 mmHg 33%
    10:00 +36°C° 0 mm 2 mps 751 mmHg 28%
    11:00 +38°C° 0 mm 3 mps 751 mmHg 23%
    12:00 +39°C° 0 mm 3 mps 750 mmHg 19%
    13:00 +40°C° 0 mm 3 mps 750 mmHg 18%
    14:00 +40°C° 0 mm 3 mps 750 mmHg 17%
    15:00 +42°C° 0 mm 3 mps 749 mmHg 17%
    16:00 +41°C° 0 mm 4 mps 749 mmHg 18%
    17:00 +38°C° 0 mm 4 mps 749 mmHg 20%
    18:00 +37°C° 0 mm 5 mps 749 mmHg 22%
    19:00 +35°C° 0 mm 5 mps 750 mmHg 25%
    20:00 +32°C° 0 mm 4 mps 750 mmHg 29%
    21:00 +28°C° 0 mm 4 mps 751 mmHg 32%
    22:00 +27°C° 0.1 mm 4 mps 751 mmHg 37%
    23:00 +26°C° 0.1 mm 3 mps 751 mmHg 41%

    Tomorrow, 26 August, Monday

    Time Temperature Precipitation Wind Pressure Humidity
    00:00 +25°C° 0.1 mm 2 mps 751 mmHg 45%
    01:00 +24°C° 0 mm 2 mps 751 mmHg 47%
    02:00 +24°C° 0 mm 2 mps 752 mmHg 50%
    03:00 +23°C° 0 mm 1 mps 752 mmHg 52%
    04:00 +23°C° 0 mm 1 mps 752 mmHg 53%
    05:00 +23°C° 0 mm 1 mps 752 mmHg 53%
    06:00 +21°C° 0 mm 0 mps 752 mmHg 54%
    07:00 +26°C° 0 mm 1 mps 752 mmHg 45%
    08:00 +29°C° 0 mm 1 mps 753 mmHg 36%
    09:00 +31°C° 0 mm 1 mps 753 mmHg 27%
    10:00 +34°C° 0 mm 2 mps 752 mmHg 23%
    11:00 +36°C° 0 mm 3 mps 752 mmHg 18%
    12:00 +37°C° 0 mm 4 mps 752 mmHg 14%
    13:00 +39°C° 0 mm 5 mps 752 mmHg 13%
    14:00 +40°C° 0 mm 5 mps 751 mmHg 13%
    15:00 +40°C° 0 mm 6 mps 751 mmHg 13%
    16:00 +39°C° 0 mm 5 mps 751 mmHg 15%
    17:00 +36°C° 0 mm 5 mps 751 mmHg 17%
    18:00 +35°C° 0 mm 5 mps 751 mmHg 19%
    19:00 +33°C° 0 mm 6 mps 752 mmHg 26%
    20:00 +30°C° 0 mm 7 mps 753 mmHg 33%
    21:00 +28°C° 0 mm 8 mps 754 mmHg 40%
    22:00 +27°C° 0.1 mm 7 mps 754 mmHg 42%
    23:00 +27°C° 0.1 mm 6 mps 754 mmHg 44%

    Day after tomorrow, 27 August, Tuesday

    Time Temperature Precipitation Wind Pressure Humidity
    00:00 +26°C° 0.1 mm 5 mps 754 mmHg 46%
    01:00 +26°C° 0.2 mm 5 mps 754 mmHg 48%
    02:00 +25°C° 0.2 mm 4 mps 754 mmHg 50%
    03:00 +25°C° 0.2 mm 4 mps 754 mmHg 51%
    04:00 +23°C° 0.2 mm 4 mps 754 mmHg 56%
    05:00 +23°C° 0.2 mm 4 mps 754 mmHg 60%
    06:00 +22°C° 0.2 mm 4 mps 754 mmHg 64%
    07:00 +25°C° 0 mm 4 mps 754 mmHg 56%
    08:00 +28°C° 0 mm 5 mps 754 mmHg 48%
    09:00 +30°C° 0 mm 6 mps 753 mmHg 39%
    10:00 +32°C° 0 mm 6 mps 753 mmHg 35%
    11:00 +34°C° 0 mm 6 mps 752 mmHg 31%
    12:00 +35°C° 0 mm 6 mps 752 mmHg 27%
    13:00 +36°C° 0 mm 6 mps 751 mmHg 26%
    14:00 +36°C° 0 mm 5 mps 751 mmHg 25%
    15:00 +37°C° 0 mm 5 mps 750 mmHg 24%
    16:00 +36°C° 0 mm 5 mps 750 mmHg 26%
    17:00 +35°C° 0 mm 5 mps 750 mmHg 29%
    18:00 +33°C° 0 mm 4 mps 750 mmHg 31%
    19:00 +30°C° 0 mm 4 mps 750 mmHg 38%
    20:00 +28°C° 0 mm 4 mps 751 mmHg 44%
    21:00 +26°C° 0 mm 5 mps 751 mmHg 51%
    22:00 +26°C° 0 mm 4 mps 751 mmHg 54%
    23:00 +25°C° 0 mm 3 mps 751 mmHg 58%

    28 August, Wednesday

    Time Temperature Precipitation Wind Pressure Humidity
    00:00 +24°C° 0 mm 3 mps 751 mmHg 62%
    01:00 +24°C° 0 mm 2 mps 751 mmHg 64%
    02:00 +23°C° 0 mm 2 mps 750 mmHg 66%
    03:00 +22°C° 0 mm 1 mps 750 mmHg 68%
    04:00 +23°C° 0 mm 1 mps 750 mmHg 67%
    05:00 +23°C° 0 mm 1 mps 751 mmHg 67%
    06:00 +23°C° 0 mm 1 mps 751 mmHg 66%
    07:00 +25°C° 0 mm 1 mps 751 mmHg 58%
    08:00 +27°C° 0 mm 1 mps 751 mmHg 49%
    09:00 +30°C° 0 mm 2 mps 751 mmHg 41%
    10:00 +31°C° 0 mm 2 mps 750 mmHg 38%
    11:00 +34°C° 0 mm 2 mps 750 mmHg 34%
    12:00 +35°C° 0 mm 2 mps 750 mmHg 30%
    13:00 +36°C° 0 mm 2 mps 749 mmHg 28%
    14:00 +37°C° 0 mm 2 mps 749 mmHg 27%
    15:00 +37°C° 0 mm 2 mps 749 mmHg 25%
    16:00 +36°C° 0.1 mm 3 mps 749 mmHg 28%
    17:00 +35°C° 0.1 mm 3 mps 749 mmHg 31%
    18:00 +34°C° 0.1 mm 3 mps 749 mmHg 34%
    19:00 +32°C° 0 mm 4 mps 750 mmHg 38%
    20:00 +29°C° 0 mm 5 mps 750 mmHg 42%
    21:00 +27°C° 0 mm 6 mps 751 mmHg 47%
    22:00 +26°C° 0 mm 5 mps 751 mmHg 51%
    23:00 +25°C° 0 mm 4 mps 751 mmHg 55%

    29 August, Thursday

    Time Temperature Precipitation Wind Pressure Humidity
    00:00 +23°C° 0 mm 4 mps 752 mmHg 59%
    01:00 +24°C° 0 mm 3 mps 752 mmHg 61%
    02:00 +22°C° 0 mm 3 mps 752 mmHg 63%
    03:00 +22°C° 0 mm 3 mps 752 mmHg 64%
    04:00 +23°C° 0.1 mm 2 mps 752 mmHg 65%
    05:00 +23°C° 0.1 mm 2 mps 752 mmHg 66%
    06:00 +23°C° 0.1 mm 2 mps 752 mmHg 67%
    07:00 +25°C° 0 mm 2 mps 752 mmHg 59%
    08:00 +27°C° 0 mm 3 mps 752 mmHg 51%
    09:00 +29°C° 0 mm 3 mps 751 mmHg 43%
    10:00 +31°C° 0 mm 3 mps 751 mmHg 38%
    11:00 +33°C° 0 mm 4 mps 751 mmHg 34%
    12:00 +35°C° 0 mm 4 mps 750 mmHg 29%
    13:00 +36°C° 0 mm 4 mps 750 mmHg 28%
    14:00 +36°C° 0 mm 4 mps 749 mmHg 26%
    15:00 +37°C° 0 mm 3 mps 749 mmHg 25%
    16:00 +36°C° 0 mm 4 mps 749 mmHg 26%
    17:00 +36°C° 0 mm 4 mps 749 mmHg 27%
    18:00 +35°C° 0 mm 5 mps 749 mmHg 29%
    19:00 +33°C° 0 mm 5 mps 749 mmHg 37%
    20:00 +29°C° 0 mm 6 mps 750 mmHg 45%
    21:00 +27°C° 0 mm 7 mps 751 mmHg 53%
    22:00 +26°C° 0 mm 6 mps 751 mmHg 57%
    23:00 +26°C° 0 mm 5 mps 751 mmHg 60%

    30 August, Friday

    Time Temperature Precipitation Wind Pressure Humidity
    00:00 +25°C° 0 mm 5 mps 751 mmHg 64%
    01:00 +23°C° 0.1 mm 5 mps 751 mmHg 68%
    02:00 +23°C° 0.1 mm 4 mps 751 mmHg 72%
    03:00 +22°C° 0.1 mm 4 mps 751 mmHg 77%
    04:00 +22°C° 0.1 mm 4 mps 751 mmHg 78%
    05:00 +22°C° 0.1 mm 5 mps 751 mmHg 79%
    06:00 +22°C° 0.1 mm 5 mps 751 mmHg 80%
    07:00 +22°C° 0.1 mm 5 mps 751 mmHg 78%
    08:00 +22°C° 0.1 mm 5 mps 751 mmHg 76%
    09:00 +23°C° 0.1 mm 5 mps 751 mmHg 74%
    10:00 +23°C° 0.1 mm 4 mps 751 mmHg 71%
    11:00 +25°C° 0.1 mm 4 mps 751 mmHg 67%
    12:00 +26°C° 0.1 mm 3 mps 750 mmHg 64%
    13:00 +27°C° 0.4 mm 3 mps 750 mmHg 61%
    14:00 +27°C° 0.4 mm 3 mps 750 mmHg 59%
    15:00 +28°C° 0.4 mm 3 mps 749 mmHg 57%
    16:00 +27°C° 0.4 mm 3 mps 750 mmHg 60%
    17:00 +27°C° 0.4 mm 2 mps 750 mmHg 63%
    18:00 +26°C° 0.4 mm 1 mps 750 mmHg 66%
    19:00 +25°C° 0.2 mm 2 mps 750 mmHg 67%
    20:00 +25°C° 0.2 mm 4 mps 751 mmHg 68%
    21:00 +23°C° 0.2 mm 5 mps 752 mmHg 69%
    22:00 +22°C° 0 mm 5 mps 751 mmHg 70%
    23:00 +22°C° 0 mm 5 mps 751 mmHg 71%
    Show more